Regional Weather Roundup
Issued by NWS

Home | Current Version | Previous Version | Text Only | Print | Product List | Glossary On
Versions: 1 2 3 4 5 6 7 8 9 10 11 12 13 14 15 16 17 18 19 20 21 22 23 24 25 26 27 28 29 30 31 32 33 34 35 36 37 38 39 40 41 42 43 44 45 46 47 48 49 50
170
ASUS43 KFSD 191910
RWRSD

WEATHER ROUNDUP FOR SOUTH DAKOTA
NATIONAL WEATHER SERVICE SIOUX FALLS SD
100 PM CST THU JAN 19 2017

NOTE: "FAIR" INDICATES FEW OR NO CLOUDS BELOW 12,000 FEET WITH NO
SIGNIFICANT WEATHER AND/OR OBSTRUCTIONS TO VISIBILITY.


SDZ001>005-009-010-012>017-192000-
NORTHWEST AND NORTH CENTRAL SOUTH DAKOTA

CITY           SKY/WX    TMP DP  RH WIND       PRES   REMARKS
BUFFALO          N/A     35  22  58 NW6       29.41F
FAITH            N/A     25  19  78 NW6       29.46F WCI  18
MOBRIDGE       CLOUDY    20  13  74 SE5       29.49F WCI  13
$$

SDZ012>016-024>037-041>051-057-063-072>074-192000-
SOUTHWEST AND SOUTH CENTRAL SOUTH DAKOTA

CITY           SKY/WX    TMP DP  RH WIND       PRES   REMARKS
RAPID CTY ARPT SUNNY     47  26  44 VRB3      29.46F
PIERRE         CLOUDY    25  20  81 CALM      29.52F
CUSTER         SUNNY     52  16  24 SW10      29.48F
ELLSWORTH AFB  CLOUDY    46  23  39 N12       29.45F
PHILIP         CLOUDY    29  21  72 W3        29.48F
PINE RIDGE     SUNNY     40  26  57 W15       29.49F
SPEARFISH      FAIR      46  21  36 W6        29.47F
WINNER         FAIR      46  34  62 S16       29.52F
$$

SDZ004>011-016>023-039-040-192000-
NORTHEAST SOUTH DAKOTA

CITY           SKY/WX    TMP DP  RH WIND       PRES   REMARKS
ABERDEEN       FOG       33  31  92 S13       29.58F VSB 1/4 WCI  24
WATERTOWN      FOG       35  34  96 S17       29.58F VSB 3/4 WCI  25
BROOKINGS      FOG       35  34  96 S14       29.62F VSB<1/4 WCI  26
SISSETON         N/A     39  36  89 S12       29.58F
$$

SDZ017-020-022-023-036>040-048>070-192000-
SOUTHEAST SOUTH DAKOTA

CITY           SKY/WX    TMP DP  RH WIND       PRES   REMARKS
SIOUX FALLS    FOG       36  36 100 S10       29.66F VSB 3/4
HURON          FOG       35  35 100 S13       29.59S VSB 1/2 WCI  26
CHAMBERLAIN    CLOUDY    41  39  91 SE15      29.54F
MITCHELL       FOG       38  38 100 SE21G29   29.60F VSB 1/4
YANKTON        CLOUDY    39  37  93 SE10      29.63F
$$

ABBREVIATIONS USED IN REMARKS
   TC - TEMPERATURE IN CELSIUS
  WCI - WIND CHILL INDEX
   HX - HEAT INDEX
  VSB - VISIBILITY





USA.gov is the U.S. government's official web portal to all federal, state and local government web resources and services.